NETSAT-3

Last updated on Sun Dec 14 2025 00:03:50 GMT+0000 (Coordinated Universal Time)

1 46505U 20068V 25347.19580166 .00025153 00000+0 73322-3 0 9998 2 46505 97.8619 335.0379 0004103 288.8619 71.2178 15.35358866287072
UTC large
Height (km)
Speed (km/s)
/
Latitude / Longitude
Inclination (degrees)
Orbital Period (minutes)
Azimuth
Elevation
Range (km)
Doppler Factor

Next 0 passes for location: London (51.5072 / 0.1276)

Sorry there are no passes over London.